| time (UTC) | temp F | wind direction | speed knots | gust knots | rain 1hr in | rain 24hr in | rain mn in | humidity % | barometer mb |
| 20260902212320 | 93 | 190 | 1.7 | 7.0 | 0.00 | 0.00 | 0.00 | 59 | 1017.4 |
| 20260902211816 | 93 | 254 | 4.3 | 7.8 | 0.00 | 0.00 | 0.00 | 58 | 1017.3 |
| 20260902211311 | 94 | 209 | 2.6 | 7.8 | 0.00 | 0.00 | 0.00 | 60 | 1017.4 |
| 20260902210806 | 94 | 255 | 4.3 | 7.0 | 0.00 | 0.00 | 0.00 | 59 | 1017.5 |
| 20260902210301 | 94 | 210 | 2.6 | 5.2 | 0.00 | 0.00 | 0.00 | 58 | 1017.3 |
| 20260902205759 | 94 | 226 | 2.6 | 8.7 | 0.00 | 0.00 | 0.00 | 59 | 1017.5 |
| 20260902205254 | 94 | 202 | 1.7 | 6.1 | 0.00 | 0.00 | 0.00 | 60 | 1017.6 |
| 20260902204749 | 94 | 252 | 3.5 | 9.6 | 0.00 | 0.00 | 0.00 | 60 | 1017.6 |
| 20260902204244 | 94 | 271 | 2.6 | 6.1 | 0.00 | 0.00 | 0.00 | 60 | 1017.5 |
| 20260902203744 | 94 | 245 | 2.6 | 5.2 | 0.00 | 0.00 | 0.00 | 59 | 1017.7 |
| 20260902203239 | 93 | 208 | 1.7 | 5.2 | 0.00 | 0.00 | 0.00 | 58 | 1017.8 |
| 20260902202734 | 94 | 274 | 5.2 | 7.0 | 0.00 | 0.00 | 0.00 | 59 | 1017.6 |
| 20260902202231 | 94 | 251 | 2.6 | 7.0 | 0.00 | 0.00 | 0.00 | 59 | 1017.8 |
| 20260902201727 | 94 | 208 | 0.9 | 5.2 | 0.00 | 0.00 | 0.00 | 59 | 1017.8 |
| 20260902201226 | 94 | 261 | 3.5 | 7.8 | 0.00 | 0.00 | 0.00 | 58 | 1017.8 |
| 20260902200721 | 94 | 259 | 2.6 | 5.2 | 0.00 | 0.00 | 0.00 | 59 | 1017.6 |
| 20260902200217 | 93 | 250 | 1.7 | 6.1 | 0.00 | 0.00 | 0.00 | 59 | 1017.9 |
| 20260902195712 | 95 | 210 | 3.5 | 4.3 | 0.00 | 0.00 | 0.00 | 59 | 1017.9 |
| 20260902195211 | 95 | 203 | 1.7 | 4.3 | 0.00 | 0.00 | 0.00 | 59 | 1017.8 |
| 20260902194711 | 94 | 190 | 1.7 | 1.7 | 0.00 | 0.00 | 0.00 | 60 | 1017.9 |
| 20260902194206 | 94 | 208 | 1.7 | 6.1 | 0.00 | 0.00 | 0.00 | 58 | 1018.0 |
| 20260902193702 | 94 | 226 | 1.7 | 5.2 | 0.00 | 0.00 | 0.00 | 58 | 1018.1 |
| 20260902193157 | 94 | 209 | 2.6 | 4.3 | 0.00 | 0.00 | 0.00 | 60 | 1018.0 |
| 20260902192655 | 94 | 214 | 3.5 | 6.1 | 0.00 | 0.00 | 0.00 | 61 | 1018.4 |
| 20260902192154 | 94 | 305 | 2.6 | 9.6 | 0.00 | 0.00 | 0.00 | 61 | 1018.2 |
| 20260902191649 | 94 | 262 | 7.0 | 7.8 | 0.00 | 0.00 | 0.00 | 58 | 1018.3 |
| 20260902191143 | 94 | 206 | 3.5 | 7.8 | 0.00 | 0.00 | 0.00 | 60 | 1018.4 |
| 20260902190639 | 94 | 245 | 4.3 | 7.0 | 0.00 | 0.00 | 0.00 | 58 | 1018.4 |
| 20260902190134 | 94 | 197 | 0.9 | 2.6 | 0.00 | 0.00 | 0.00 | 61 | 1018.5 |
| 20260902185630 | 94 | 193 | 0.9 | 4.3 | 0.00 | 0.00 | 0.00 | 62 | 1018.3 |
| 20260902185126 | 93 | 269 | 6.1 | 7.8 | 0.00 | 0.00 | 0.00 | 61 | 1018.6 |
| 20260902184620 | 93 | 249 | 1.7 | 6.1 | 0.00 | 0.00 | 0.00 | 62 | 1018.7 |
| 20260902184116 | 93 | 235 | 5.2 | 7.8 | 0.00 | 0.00 | 0.00 | 61 | 1018.6 |
| 20260902183612 | 94 | 206 | 1.7 | 4.3 | 0.00 | 0.00 | 0.00 | 61 | 1018.6 |
| 20260902183108 | 94 | 228 | 1.7 | 4.3 | 0.00 | 0.00 | 0.00 | 57 | 1018.3 |
| 20260902182604 | 94 | 199 | 2.6 | 6.1 | 0.00 | 0.00 | 0.00 | 60 | 1018.8 |
| 20260902182101 | 93 | 245 | 2.6 | 7.8 | 0.00 | 0.00 | 0.00 | 60 | 1018.5 |
| 20260902181556 | 93 | 200 | 1.7 | 7.8 | 0.00 | 0.00 | 0.00 | 61 | 1018.8 |
| 20260902181055 | 93 | 205 | 1.7 | 7.0 | 0.00 | 0.00 | 0.00 | 62 | 1018.8 |
| 20260902180550 | 93 | 198 | 2.6 | 4.3 | 0.00 | 0.00 | 0.00 | 62 | 1018.9 |
| 20260902180046 | 93 | 318 | 2.6 | 7.8 | 0.00 | 0.00 | 0.00 | 59 | 1018.8 |
| 20260902175545 | 93 | 232 | 1.7 | 6.1 | 0.00 | 0.00 | 0.00 | 59 | 1018.9 |
| 20260902175042 | 93 | 264 | 5.2 | 7.0 | 0.00 | 0.00 | 0.00 | 63 | 1018.9 |
| 20260902174538 | 93 | 236 | 1.7 | 6.1 | 0.00 | 0.00 | 0.00 | 62 | 1019.0 |
| 20260902174033 | 93 | 206 | 0.9 | 5.2 | 0.00 | 0.00 | 0.00 | 63 | 1019.0 |
| 20260902173532 | 92 | 204 | 1.7 | 7.8 | 0.00 | 0.00 | 0.00 | 62 | 1019.2 |
| 20260902173033 | 92 | 241 | 4.3 | 6.1 | 0.00 | 0.00 | 0.00 | 60 | 1019.2 |
| 20260902172527 | 92 | 261 | 3.5 | 7.8 | 0.00 | 0.00 | 0.00 | 61 | 1019.2 |
| 20260902172022 | 92 | 217 | 6.1 | 7.8 | 0.00 | 0.00 | 0.00 | 61 | 1019.3 |
| 20260902171518 | 92 | 217 | 3.5 | 7.0 | 0.00 | 0.00 | 0.00 | 63 | 1019.4 |
| 20260902171014 | 91 | 231 | 3.5 | 6.1 | 0.00 | 0.00 | 0.00 | 63 | 1019.2 |
| 20260902170508 | 91 | 274 | 7.0 | 8.7 | 0.00 | 0.00 | 0.00 | 63 | 1019.6 |
| 20260902170005 | 91 | 218 | 1.7 | 7.0 | 0.00 | 0.00 | 0.00 | 64 | 1019.3 |
| 20260902165503 | 91 | 220 | 4.3 | 7.0 | 0.00 | 0.00 | 0.00 | 64 | 1019.3 |
| 20260902164958 | 91 | 249 | 4.3 | 7.8 | 0.00 | 0.00 | 0.00 | 62 | 1019.5 |
| 20260902164453 | 91 | 191 | 2.6 | 5.2 | 0.00 | 0.00 | 0.00 | 64 | 1019.5 |
| 20260902163952 | 91 | 241 | 6.1 | 8.7 | 0.00 | 0.00 | 0.00 | 63 | 1019.5 |
| 20260902163448 | 91 | 222 | 1.7 | 6.1 | 0.00 | 0.00 | 0.00 | 65 | 1019.6 |
| 20260902162945 | 91 | 211 | 2.6 | 7.8 | 0.00 | 0.00 | 0.00 | 64 | 1019.6 |
| 20260902162440 | 91 | 212 | 1.7 | 7.8 | 0.00 | 0.00 | 0.00 | 66 | 1019.7 |
| 20260902161935 | 90 | 232 | 3.5 | 5.2 | 0.00 | 0.00 | 0.00 | 67 | 1019.6 |
| 20260902161430 | 90 | 238 | 4.3 | 8.7 | 0.00 | 0.00 | 0.00 | 66 | 1019.6 |
| 20260902160926 | 90 | 238 | 3.5 | 8.7 | 0.00 | 0.00 | 0.00 | 65 | 1019.6 |
| 20260902160421 | 90 | 244 | 2.6 | 6.1 | 0.00 | 0.00 | 0.00 | 68 | 1019.4 |
| 20260902155919 | 90 | 240 | 3.5 | 5.2 | 0.00 | 0.00 | 0.00 | 67 | 1019.5 |
| 20260902155415 | 89 | 261 | 2.6 | 6.1 | 0.00 | 0.00 | 0.00 | 68 | 1019.5 |
| 20260902154908 | 89 | 282 | 4.3 | 7.0 | 0.00 | 0.00 | 0.00 | 69 | 1019.3 |
| 20260902154404 | 89 | 230 | 1.7 | 5.2 | 0.00 | 0.00 | 0.00 | 70 | 1019.5 |
| 20260902153857 | 89 | 231 | 2.6 | 6.1 | 0.00 | 0.00 | 0.00 | 68 | 1019.5 |
| 20260902153356 | 89 | 179 | 2.6 | 5.2 | 0.00 | 0.00 | 0.00 | 70 | 1019.6 |
| 20260902152852 | 89 | 224 | 1.7 | 7.0 | 0.00 | 0.00 | 0.00 | 71 | 1019.7 |
| 20260902152348 | 89 | 201 | 0.9 | 5.2 | 0.00 | 0.00 | 0.00 | 71 | 1019.6 |
| 20260902151843 | 89 | 192 | 2.6 | 5.2 | 0.00 | 0.00 | 0.00 | 71 | 1019.5 |
| 20260902151338 | 88 | 201 | 0.9 | 5.2 | 0.00 | 0.00 | 0.00 | 72 | 1019.9 |
| 20260902150833 | 88 | 236 | 0.9 | 4.3 | 0.00 | 0.00 | 0.00 | 70 | 1019.7 |
| 20260902150329 | 87 | 199 | 2.6 | 5.2 | 0.00 | 0.00 | 0.00 | 73 | 1019.7 |
| 20260902145829 | 87 | 228 | 4.3 | 6.1 | 0.00 | 0.00 | 0.00 | 72 | 1019.6 |
| 20260902145324 | 87 | 215 | 2.6 | 4.3 | 0.00 | 0.00 | 0.00 | 72 | 1019.8 |
| 20260902144819 | 87 | 261 | 4.3 | 7.0 | 0.00 | 0.00 | 0.00 | 70 | 1019.8 |
| 20260902144316 | 87 | 230 | 1.7 | 6.1 | 0.00 | 0.00 | 0.00 | 72 | 1019.6 |
| 20260902143810 | 86 | 199 | 2.6 | 2.6 | 0.00 | 0.00 | 0.00 | 72 | 1019.8 |
| 20260902143305 | 86 | 236 | 2.6 | 5.2 | 0.00 | 0.00 | 0.00 | 73 | 1019.7 |
| 20260902142801 | 86 | 245 | 5.2 | 7.8 | 0.00 | 0.00 | 0.00 | 73 | 1019.7 |
| 20260902142257 | 86 | 192 | 1.7 | 4.3 | 0.00 | 0.00 | 0.00 | 75 | 1019.8 |
| 20260902141756 | 86 | 273 | 4.3 | 6.1 | 0.00 | 0.00 | 0.00 | 74 | 1019.6 |
| 20260902141252 | 85 | 190 | 0.9 | 4.3 | 0.00 | 0.00 | 0.00 | 76 | 1019.8 |
| 20260902140746 | 84 | 217 | 2.6 | 4.3 | 0.00 | 0.00 | 0.00 | 76 | 1019.6 |
| 20260902140242 | 84 | 244 | 3.5 | 6.1 | 0.00 | 0.00 | 0.00 | 78 | 1019.6 |
| 20260902135741 | 84 | 252 | 2.6 | 6.1 | 0.00 | 0.00 | 0.00 | 77 | 1019.7 |
| 20260902135237 | 83 | 264 | 1.7 | 6.1 | 0.00 | 0.00 | 0.00 | 78 | 1019.7 |
| 20260902134736 | 83 | 259 | 2.6 | 5.2 | 0.00 | 0.00 | 0.00 | 78 | 1019.9 |
| 20260902134232 | 83 | 219 | 2.6 | 4.3 | 0.00 | 0.00 | 0.00 | 80 | 1019.7 |
| 20260902133727 | 82 | 256 | 4.3 | 4.3 | 0.00 | 0.00 | 0.00 | 79 | 1019.7 |
| 20260902133226 | 82 | 240 | 2.6 | 5.2 | 0.00 | 0.00 | 0.00 | 80 | 1019.8 |
| 20260902132721 | 82 | 251 | 3.5 | 5.2 | 0.00 | 0.00 | 0.00 | 80 | 1019.7 |
| 20260902132217 | 81 | 269 | 2.6 | 4.3 | 0.00 | 0.00 | 0.00 | 81 | 1019.8 |
| 20260902131712 | 81 | 199 | 2.6 | 4.3 | 0.00 | 0.00 | 0.00 | 81 | 1019.6 |
| 20260902131209 | 80 | 200 | 0.9 | 2.6 | 0.00 | 0.00 | 0.00 | 82 | 1019.6 |
| 20260902130709 | 80 | 266 | 2.6 | 4.3 | 0.00 | 0.00 | 0.00 | 82 | 1019.8 |
| 20260902130204 | 79 | 247 | 0.9 | 2.6 | 0.00 | 0.00 | 0.00 | 83 | 1019.6 |
| 20260902125659 | 79 | 189 | 1.7 | 1.7 | 0.00 | 0.00 | 0.00 | 84 | 1019.8 |
| 20260902125155 | 78 | 188 | 0.9 | 2.6 | 0.00 | 0.00 | 0.00 | 86 | 1019.7 |
| 20260902124652 | 78 | 204 | 1.7 | 1.7 | 0.00 | 0.00 | 0.00 | 86 | 1019.7 |
| 20260902124152 | 77 | 190 | 0.0 | 1.7 | 0.00 | 0.00 | 0.00 | 88 | 1019.9 |
| 20260902123647 | 76 | 197 | 0.0 | 0.9 | 0.00 | 0.00 | 0.00 | 90 | 1019.6 |
| 20260902123142 | 76 | 194 | 0.0 | 0.9 | 0.00 | 0.00 | 0.00 | 91 | 1019.6 |
| 20260902122636 | 75 | 191 | 0.9 | 0.9 | 0.00 | 0.00 | 0.00 | 92 | 1019.6 |
| 20260902122133 | 75 | 198 | 0.9 | 0.9 | 0.00 | 0.00 | 0.00 | 93 | 1019.4 |
| 20260902121627 | 75 | 195 | 0.9 | 1.7 | 0.00 | 0.00 | 0.00 | 93 | 1019.6 |
| 20260902121121 | 74 | 187 | 0.0 | 0.9 | 0.00 | 0.00 | 0.00 | 94 | 1019.4 |
| 20260902120618 | 74 | 187 | 0.0 | 0.9 | 0.00 | 0.00 | 0.00 | 94 | 1019.5 |
| 20260902120114 | 74 | 196 | 0.9 | 0.9 | 0.00 | 0.00 | 0.00 | 94 | 1019.4 |
| 20260902115609 | 73 | 196 | 0.0 | 0.9 | 0.00 | 0.00 | 0.00 | 94 | 1019.4 |
| 20260902115105 | 73 | 189 | 0.0 | 0.9 | 0.00 | 0.00 | 0.00 | 94 | 1019.3 |
| 20260902114601 | 73 | 192 | 0.9 | 0.9 | 0.00 | 0.00 | 0.00 | 94 | 1019.2 |
| 20260902114100 | 73 | 197 | 0.9 | 0.9 | 0.00 | 0.00 | 0.00 | 94 | 1019.0 |
| 20260902113556 | 73 | 198 | 0.0 | 0.9 | 0.00 | 0.00 | 0.00 | 94 | 1018.9 |
| 20260902113051 | 73 | 187 | 0.0 | 0.9 | 0.00 | 0.00 | 0.00 | 94 | 1019.0 |
| 20260902112546 | 73 | 188 | 0.0 | 0.0 | 0.00 | 0.00 | 0.00 | 94 | 1019.1 |
| 20260902112043 | 73 | 190 | 0.0 | 0.0 | 0.00 | 0.00 | 0.00 | 94 | 1018.8 |
| 20260902111538 | 73 | 191 | 0.0 | 0.0 | 0.00 | 0.00 | 0.00 | 93 | 1019.0 |
| 20260902111034 | 73 | 193 | 0.0 | 0.9 | 0.00 | 0.00 | 0.00 | 93 | 1018.8 |
| 20260902110530 | 73 | 195 | 0.0 | 0.9 | 0.00 | 0.00 | 0.00 | 93 | 1018.7 |
| 20260902110025 | 73 | 190 | 0.0 | 0.9 | 0.00 | 0.00 | 0.00 | 93 | 1018.8 |
| 20260902105520 | 73 | 189 | 0.0 | 0.9 | 0.00 | 0.00 | 0.00 | 93 | 1018.9 |
| 20260902105020 | 73 | 186 | 0.0 | 0.0 | 0.00 | 0.00 | 0.00 | 92 | 1018.9 |
| 20260902104515 | 73 | 183 | 0.0 | 0.0 | 0.00 | 0.00 | 0.00 | 92 | 1018.8 |
| 20260902104010 | 73 | 190 | 0.0 | 0.9 | 0.00 | 0.00 | 0.00 | 92 | 1018.9 |
| 20260902103505 | 73 | 189 | 0.0 | 0.0 | 0.00 | 0.00 | 0.00 | 92 | 1018.8 |
| 20260902103000 | 73 | 190 | 0.0 | 0.0 | 0.00 | 0.00 | 0.00 | 92 | 1018.9 |
| 20260902102457 | 73 | 188 | 0.0 | 0.0 | 0.00 | 0.00 | 0.00 | 92 | 1019.0 |
| 20260902101954 | 73 | 188 | 0.0 | 0.0 | 0.00 | 0.00 | 0.00 | 92 | 1019.0 |
| 20260902101454 | 73 | 190 | 0.0 | 0.0 | 0.00 | 0.00 | 0.00 | 92 | 1018.7 |
| 20260902100952 | 73 | 184 | 0.9 | 0.9 | 0.00 | 0.00 | 0.00 | 92 | 1018.8 |
| 20260902100448 | 73 | 189 | 0.0 | 0.9 | 0.00 | 0.00 | 0.00 | 91 | 1018.7 |
| 20260902095942 | 73 | 178 | 0.9 | 0.9 | 0.00 | 0.00 | 0.00 | 91 | 1018.7 |
| 20260902095436 | 73 | 189 | 0.0 | 0.9 | 0.00 | 0.00 | 0.00 | 91 | 1018.7 |
| 20260902094936 | 73 | 198 | 0.0 | 0.9 | 0.00 | 0.00 | 0.00 | 91 | 1018.6 |
| 20260902094432 | 73 | 186 | 0.0 | 0.0 | 0.00 | 0.00 | 0.00 | 91 | 1018.7 |
| 20260902093926 | 73 | 186 | 0.0 | 0.9 | 0.00 | 0.00 | 0.00 | 91 | 1018.7 |
| 20260902093422 | 73 | 189 | 0.0 | 0.0 | 0.00 | 0.00 | 0.00 | 91 | 1018.5 |
| 20260902092920 | 73 | 186 | 0.0 | 0.0 | 0.00 | 0.00 | 0.00 | 91 | 1018.9 |
| 20260902092416 | 73 | 188 | 0.0 | 0.9 | 0.00 | 0.00 | 0.00 | 91 | 1018.8 |
| 20260902091911 | 73 | 189 | 0.0 | 0.0 | 0.00 | 0.00 | 0.00 | 91 | 1018.7 |
| 20260902091406 | 73 | 188 | 0.0 | 0.9 | 0.00 | 0.00 | 0.00 | 91 | 1018.6 |
| 20260902090903 | 73 | 188 | 0.0 | 0.0 | 0.00 | 0.00 | 0.00 | 91 | 1018.7 |
| 20260902090402 | 73 | 189 | 0.0 | 0.9 | 0.00 | 0.00 | 0.00 | 91 | 1018.4 |
| 20260902085901 | 73 | 189 | 0.0 | 0.9 | 0.00 | 0.00 | 0.00 | 91 | 1018.6 |
| 20260902085356 | 73 | 202 | 0.0 | 0.9 | 0.00 | 0.00 | 0.00 | 91 | 1018.6 |
| 20260902084852 | 73 | 189 | 0.0 | 0.0 | 0.00 | 0.00 | 0.00 | 91 | 1018.4 |
| 20260902084349 | 73 | 187 | 0.0 | 0.0 | 0.00 | 0.00 | 0.00 | 90 | 1018.5 |
| 20260902083844 | 73 | 189 | 0.0 | 0.0 | 0.00 | 0.00 | 0.00 | 90 | 1018.4 |
| 20260902083343 | 73 | 189 | 0.0 | 0.0 | 0.00 | 0.00 | 0.00 | 90 | 1018.3 |
| 20260902082838 | 73 | 190 | 0.0 | 0.0 | 0.00 | 0.00 | 0.00 | 90 | 1018.1 |
| 20260902082334 | 74 | 188 | 0.0 | 0.0 | 0.00 | 0.00 | 0.00 | 90 | 1018.2 |
| 20260902081831 | 74 | 187 | 0.0 | 0.0 | 0.00 | 0.00 | 0.00 | 90 | 1018.3 |
| 20260902081326 | 74 | 182 | 0.0 | 0.0 | 0.00 | 0.00 | 0.00 | 90 | 1018.1 |
| 20260902080821 | 74 | 186 | 0.0 | 0.0 | 0.00 | 0.00 | 0.00 | 90 | 1018.2 |
| 20260902080318 | 74 | 184 | 0.9 | 0.9 | 0.00 | 0.00 | 0.00 | 90 | 1018.3 |
| 20260902075817 | 74 | 184 | 0.0 | 0.9 | 0.00 | 0.00 | 0.00 | 90 | 1018.1 |
| 20260902075313 | 74 | 187 | 0.0 | 0.9 | 0.00 | 0.00 | 0.00 | 90 | 1018.3 |
| 20260902074808 | 74 | 188 | 0.0 | 0.9 | 0.00 | 0.00 | 0.00 | 89 | 1018.1 |
| 20260902074304 | 74 | 186 | 0.0 | 0.0 | 0.00 | 0.00 | 0.00 | 90 | 1018.0 |
| 20260902073758 | 74 | 187 | 0.0 | 0.9 | 0.00 | 0.00 | 0.00 | 90 | 1018.2 |
| 20260902073254 | 74 | 188 | 0.0 | 0.0 | 0.00 | 0.00 | 0.00 | 90 | 1018.0 |
| 20260902072750 | 74 | 186 | 0.0 | 0.9 | 0.00 | 0.00 | 0.00 | 90 | 1018.2 |
| 20260902072246 | 74 | 188 | 0.0 | 0.9 | 0.00 | 0.00 | 0.00 | 90 | 1018.1 |
| 20260902071742 | 74 | 187 | 0.0 | 0.9 | 0.00 | 0.00 | 0.00 | 89 | 1018.1 |
| 20260902071237 | 74 | 188 | 0.0 | 0.0 | 0.00 | 0.00 | 0.00 | 89 | 1018.2 |
| 20260902070734 | 75 | 188 | 0.0 | 0.0 | 0.00 | 0.00 | 0.00 | 89 | 1018.2 |
| 20260902070233 | 75 | 188 | 0.0 | 0.0 | 0.00 | 0.00 | 0.00 | 89 | 1018.3 |
| 20260902065732 | 75 | 187 | 0.0 | 0.9 | 0.00 | 0.00 | 0.00 | 89 | 1018.3 |
| 20260902065227 | 75 | 188 | 0.0 | 0.9 | 0.00 | 0.00 | 0.00 | 89 | 1018.1 |
| 20260902064723 | 75 | 187 | 0.0 | 0.0 | 0.00 | 0.00 | 0.00 | 89 | 1018.3 |
| 20260902064218 | 75 | 189 | 0.0 | 0.9 | 0.00 | 0.00 | 0.00 | 90 | 1018.1 |
| 20260902063714 | 75 | 190 | 0.0 | 0.0 | 0.00 | 0.00 | 0.00 | 90 | 1018.1 |
| 20260902063213 | 75 | 188 | 0.0 | 0.9 | 0.00 | 0.00 | 0.00 | 90 | 1018.1 |
| 20260902062708 | 75 | 188 | 0.0 | 0.9 | 0.00 | 0.00 | 0.00 | 90 | 1018.2 |
| 20260902062203 | 75 | 190 | 0.0 | 0.9 | 0.00 | 0.00 | 0.00 | 90 | 1018.1 |
| 20260902061702 | 75 | 176 | 0.0 | 0.9 | 0.00 | 0.00 | 0.00 | 89 | 1018.3 |
| 20260902061157 | 75 | 189 | 0.0 | 0.9 | 0.00 | 0.00 | 0.00 | 89 | 1018.0 |
| 20260902060654 | 75 | 189 | 0.0 | 0.0 | 0.00 | 0.00 | 0.00 | 89 | 1018.3 |
| 20260902060150 | 75 | 189 | 0.0 | 0.0 | 0.00 | 0.00 | 0.00 | 89 | 1018.2 |
| 20260902055645 | 75 | 189 | 0.0 | 0.9 | 0.00 | 0.00 | 0.00 | 89 | 1018.2 |
| 20260902055141 | 75 | 189 | 0.0 | 0.9 | 0.00 | 0.00 | 0.00 | 89 | 1018.2 |
| 20260902054636 | 75 | 189 | 0.0 | 0.0 | 0.00 | 0.00 | 0.00 | 89 | 1018.5 |
| 20260902054131 | 75 | 188 | 0.0 | 0.0 | 0.00 | 0.00 | 0.00 | 89 | 1018.2 |
| 20260902053627 | 75 | 188 | 0.0 | 0.0 | 0.00 | 0.00 | 0.00 | 89 | 1018.3 |
| 20260902053121 | 76 | 188 | 0.0 | 0.9 | 0.00 | 0.00 | 0.00 | 88 | 1018.3 |
| 20260902052620 | 76 | 188 | 0.0 | 0.0 | 0.00 | 0.00 | 0.00 | 88 | 1018.6 |
| 20260902052111 | 76 | 187 | 0.0 | 0.9 | 0.00 | 0.00 | 0.00 | 88 | 1018.2 |
| 20260902051610 | 76 | 188 | 0.0 | 0.0 | 0.00 | 0.00 | 0.00 | 88 | 1018.2 |
| 20260902051109 | 76 | 187 | 0.0 | 0.9 | 0.00 | 0.00 | 0.00 | 88 | 1018.5 |
| 20260902050604 | 76 | 180 | 0.0 | 0.9 | 0.00 | 0.00 | 0.00 | 88 | 1018.1 |
| 20260902050059 | 76 | 188 | 0.0 | 0.9 | 0.00 | 0.00 | 0.00 | 87 | 1018.2 |
| 20260902045555 | 76 | 185 | 0.0 | 0.9 | 0.00 | 0.00 | 0.00 | 87 | 1018.1 |
| 20260902045051 | 76 | 186 | 0.0 | 0.9 | 0.00 | 0.00 | 0.00 | 87 | 1018.2 |
| 20260902044550 | 76 | 187 | 0.0 | 0.9 | 0.00 | 0.00 | 0.00 | 86 | 1018.3 |
| 20260902044046 | 77 | 188 | 0.0 | 0.0 | 0.00 | 0.00 | 0.00 | 86 | 1018.2 |
| 20260902043542 | 77 | 192 | 0.0 | 0.9 | 0.00 | 0.00 | 0.00 | 86 | 1018.2 |
| 20260902043037 | 77 | 187 | 0.0 | 0.9 | 0.00 | 0.00 | 0.00 | 86 | 1018.3 |
| 20260902042536 | 77 | 188 | 0.0 | 0.0 | 0.00 | 0.00 | 0.00 | 86 | 1018.2 |
| 20260902042031 | 77 | 187 | 0.0 | 0.0 | 0.00 | 0.00 | 0.00 | 85 | 1018.3 |
| 20260902041526 | 77 | 188 | 0.0 | 0.9 | 0.00 | 0.00 | 0.00 | 85 | 1018.3 |
| 20260902041020 | 77 | 188 | 0.0 | 0.0 | 0.00 | 0.00 | 0.00 | 85 | 1018.3 |
| 20260902040515 | 78 | 188 | 0.0 | 0.9 | 0.00 | 0.00 | 0.00 | 84 | 1018.2 |
| 20260902040014 | 78 | 188 | 0.0 | 0.9 | 0.00 | 0.00 | 0.00 | 84 | 1018.2 |
| 20260902035508 | 78 | 187 | 0.0 | 0.9 | 0.00 | 0.00 | 0.00 | 84 | 1018.3 |
| 20260902035004 | 78 | 187 | 0.9 | 0.9 | 0.00 | 0.00 | 0.00 | 84 | 1018.4 |
| 20260902034503 | 78 | 189 | 0.0 | 0.9 | 0.00 | 0.00 | 0.00 | 84 | 1018.4 |
| 20260902033957 | 78 | 200 | 0.9 | 0.9 | 0.00 | 0.00 | 0.00 | 84 | 1018.4 |
| 20260902033456 | 78 | 194 | 0.0 | 0.9 | 0.00 | 0.00 | 0.00 | 84 | 1018.1 |
| 20260902032955 | 78 | 196 | 0.9 | 0.9 | 0.00 | 0.00 | 0.00 | 85 | 1018.3 |
| 20260902032450 | 78 | 188 | 0.0 | 0.9 | 0.00 | 0.00 | 0.00 | 85 | 1018.4 |
| 20260902031944 | 77 | 190 | 0.0 | 0.9 | 0.00 | 0.00 | 0.00 | 85 | 1018.3 |
| 20260902031440 | 77 | 188 | 0.0 | 0.0 | 0.00 | 0.00 | 0.00 | 85 | 1018.4 |
| 20260902030937 | 77 | 187 | 0.0 | 0.0 | 0.00 | 0.00 | 0.00 | 84 | 1018.1 |
| 20260902030436 | 78 | 187 | 0.0 | 0.0 | 0.00 | 0.00 | 0.00 | 84 | 1018.2 |
| 20260902025934 | 78 | 188 | 0.0 | 0.0 | 0.00 | 0.00 | 0.00 | 83 | 1018.2 |
| 20260902025431 | 78 | 188 | 0.0 | 0.0 | 0.00 | 0.00 | 0.00 | 83 | 1018.3 |
| 20260902024925 | 78 | 185 | 0.0 | 0.0 | 0.00 | 0.00 | 0.00 | 83 | 1018.3 |
| 20260902024421 | 78 | 186 | 0.0 | 0.0 | 0.00 | 0.00 | 0.00 | 83 | 1018.3 |
| 20260902023916 | 78 | 186 | 0.0 | 0.0 | 0.00 | 0.00 | 0.00 | 83 | 1018.3 |
| 20260902023412 | 78 | 187 | 0.0 | 0.0 | 0.00 | 0.00 | 0.00 | 82 | 1018.2 |
| 20260902022911 | 78 | 186 | 0.0 | 0.0 | 0.00 | 0.00 | 0.00 | 82 | 1018.2 |
| 20260902022406 | 78 | 187 | 0.0 | 0.0 | 0.00 | 0.00 | 0.00 | 82 | 1018.4 |
| 20260902021902 | 78 | 186 | 0.0 | 0.9 | 0.00 | 0.00 | 0.00 | 82 | 1018.3 |
| 20260902021402 | 78 | 186 | 0.0 | 0.0 | 0.00 | 0.00 | 0.00 | 82 | 1018.1 |
| 20260902020857 | 78 | 187 | 0.0 | 0.0 | 0.00 | 0.00 | 0.00 | 82 | 1018.2 |
| 20260902020354 | 79 | 185 | 0.0 | 0.0 | 0.00 | 0.00 | 0.00 | 82 | 1018.3 |
| 20260902015849 | 79 | 184 | 0.0 | 0.0 | 0.00 | 0.00 | 0.00 | 81 | 1018.1 |
| 20260902015344 | 79 | 186 | 0.0 | 0.0 | 0.00 | 0.00 | 0.00 | 80 | 1018.3 |
| 20260902014840 | 79 | 186 | 0.0 | 0.0 | 0.00 | 0.00 | 0.00 | 80 | 1018.0 |
| 20260902014336 | 80 | 186 | 0.0 | 0.0 | 0.00 | 0.00 | 0.00 | 80 | 1018.3 |
| 20260902013835 | 80 | 184 | 0.0 | 0.9 | 0.00 | 0.00 | 0.00 | 80 | 1018.3 |
| 20260902013331 | 80 | 190 | 0.0 | 0.0 | 0.00 | 0.00 | 0.00 | 81 | 1018.1 |
| 20260902012826 | 80 | 186 | 0.0 | 0.0 | 0.00 | 0.00 | 0.00 | 81 | 1017.9 |
| 20260902012322 | 80 | 186 | 0.0 | 0.0 | 0.00 | 0.00 | 0.00 | 81 | 1017.9 |
| 20260902011817 | 80 | 189 | 0.0 | 0.0 | 0.00 | 0.00 | 0.00 | 81 | 1018.0 |
| 20260902011312 | 80 | 186 | 0.0 | 0.0 | 0.00 | 0.00 | 0.00 | 80 | 1017.8 |
| 20260902010811 | 80 | 186 | 0.0 | 0.0 | 0.00 | 0.00 | 0.00 | 80 | 1018.1 |
| 20260902010306 | 80 | 191 | 0.0 | 0.0 | 0.00 | 0.00 | 0.00 | 80 | 1018.0 |
| 20260902005805 | 81 | 190 | 0.0 | 0.0 | 0.00 | 0.00 | 0.00 | 80 | 1017.6 |
| 20260902005300 | 81 | 189 | 0.0 | 0.0 | 0.00 | 0.00 | 0.00 | 79 | 1017.9 |
| 20260902004755 | 81 | 186 | 0.0 | 0.0 | 0.00 | 0.00 | 0.00 | 78 | 1017.6 |
| 20260902004250 | 82 | 185 | 0.0 | 0.0 | 0.00 | 0.00 | 0.00 | 78 | 1017.7 |
| 20260902003745 | 82 | 189 | 0.0 | 0.0 | 0.00 | 0.00 | 0.00 | 77 | 1017.5 |
| 20260902003240 | 83 | 188 | 0.0 | 0.9 | 0.00 | 0.00 | 0.00 | 75 | 1017.7 |
| 20260902002736 | 83 | 189 | 0.0 | 0.9 | 0.00 | 0.00 | 0.00 | 74 | 1017.5 |
| 20260902002230 | 83 | 186 | 0.0 | 0.9 | 0.00 | 0.00 | 0.00 | 74 | 1017.7 |
| 20260902001726 | 84 | 186 | 0.0 | 0.9 | 0.00 | 0.00 | 0.00 | 73 | 1017.6 |
| 20260902001226 | 85 | 183 | 0.0 | 0.0 | 0.00 | 0.00 | 0.00 | 72 | 1017.9 |
| 20260902000720 | 85 | 186 | 0.0 | 0.9 | 0.00 | 0.00 | 0.00 | 71 | 1017.8 |
| 20260902000216 | 86 | 187 | 0.0 | 0.9 | 0.00 | 0.00 | 0.00 | 70 | 1018.1 |
| 20260901235715 | 86 | 188 | 0.0 | 0.9 | 0.00 | 0.00 | 0.00 | 69 | 1017.8 |
| 20260901235210 | 87 | 188 | 0.9 | 0.9 | 0.00 | 0.00 | 0.00 | 68 | 1017.8 |
| 20260901234710 | 88 | 186 | 0.9 | 1.7 | 0.00 | 0.00 | 0.00 | 67 | 1017.8 |
| 20260901234205 | 89 | 189 | 0.0 | 0.9 | 0.00 | 0.00 | 0.00 | 67 | 1017.9 |
| 20260901233704 | 90 | 189 | 0.0 | 0.9 | 0.00 | 0.00 | 0.00 | 67 | 1017.9 |
| 20260901233201 | 91 | 188 | 0.0 | 0.9 | 0.00 | 0.00 | 0.00 | 67 | 1018.1 |
| 20260901232655 | 91 | 189 | 0.0 | 0.9 | 0.00 | 0.00 | 0.00 | 66 | 1018.2 |
| 20260901232150 | 92 | 189 | 0.0 | 0.9 | 0.00 | 0.00 | 0.00 | 66 | 1018.1 |
| 20260901231647 | 92 | 189 | 0.0 | 0.9 | 0.00 | 0.00 | 0.00 | 66 | 1018.1 |
| 20260901231143 | 92 | 193 | 0.0 | 0.9 | 0.00 | 0.00 | 0.00 | 64 | 1018.1 |
| 20260901230639 | 92 | 194 | 0.0 | 0.9 | 0.00 | 0.00 | 0.00 | 63 | 1018.2 |
| 20260901230138 | 92 | 194 | 0.0 | 0.9 | 0.00 | 0.00 | 0.00 | 62 | 1018.2 |
| 20260901225634 | 92 | 193 | 0.9 | 0.9 | 0.00 | 0.00 | 0.00 | 63 | 1018.0 |
| 20260901225134 | 92 | 190 | 0.0 | 0.9 | 0.00 | 0.00 | 0.00 | 63 | 1018.1 |
| 20260901224630 | 93 | 238 | 2.6 | 2.6 | 0.00 | 0.00 | 0.00 | 61 | 1018.1 |
| 20260901224126 | 92 | 225 | 0.9 | 1.7 | 0.00 | 0.00 | 0.00 | 61 | 1018.1 |
| 20260901223621 | 93 | 245 | 2.6 | 2.6 | 0.00 | 0.00 | 0.00 | 62 | 1018.2 |
| 20260901223116 | 92 | 223 | 0.9 | 4.3 | 0.00 | 0.00 | 0.00 | 60 | 1018.0 |
| 20260901222612 | 93 | 257 | 1.7 | 4.3 | 0.00 | 0.00 | 0.00 | 62 | 1018.2 |
| 20260901222108 | 93 | 217 | 0.9 | 2.6 | 0.00 | 0.00 | 0.00 | 61 | 1018.1 |
| 20260901221604 | 93 | 204 | 0.9 | 4.3 | 0.00 | 0.00 | 0.00 | 61 | 1018.1 |
| 20260901221059 | 93 | 221 | 1.7 | 5.2 | 0.00 | 0.00 | 0.00 | 59 | 1018.2 |
| 20260901220558 | 93 | 210 | 0.9 | 2.6 | 0.00 | 0.00 | 0.00 | 60 | 1018.2 |
| 20260901220058 | 93 | 266 | 2.6 | 5.2 | 0.00 | 0.00 | 0.00 | 60 | 1017.9 |
| 20260901215556 | 94 | 209 | 0.9 | 4.3 | 0.00 | 0.00 | 0.00 | 61 | 1018.1 |
| 20260901215050 | 94 | 237 | 0.9 | 2.6 | 0.00 | 0.00 | 0.00 | 58 | 1018.0 |
| 20260901214549 | 94 | 195 | 0.9 | 1.7 | 0.00 | 0.00 | 0.00 | 59 | 1018.1 |
| 20260901214043 | 94 | 194 | 1.7 | 1.7 | 0.00 | 0.00 | 0.00 | 59 | 1018.0 |
| 20260901213537 | 94 | 210 | 3.5 | 6.1 | 0.00 | 0.00 | 0.00 | 58 | 1018.0 |
| 20260901213032 | 93 | 185 | 0.9 | 1.7 | 0.00 | 0.00 | 0.00 | 61 | 1018.1 |
| 20260901212532 | 94 | 227 | 1.7 | 5.2 | 0.00 | 0.00 | 0.00 | 59 | 1018.0 |